User: anonymous   Login
Location: *
(43.9905°S, 176.4941°W)
Time: 07:03:32
(UTC+00:00)
Language:

Cosmos 468 Rocket - Orbit

View from above orbital plane
View from above orbital plane
View from above satellite
View from above satellite

Ground track
Ground track

The orbit data is extracted from the following two-line orbital elements,

1  5707U 71114B   20049.52628073  .00000063  00000-0  28894-4 0  9995
2  5707  74.0260  84.8716 0026145 272.2655  87.5506 14.38886278523210
Epoch (UTC): 18 February 2020 12:37:50
Eccentricity: 0.0026145
inclination: 74.0260°
perigee height: 743 km
apogee height: 781 km
right ascension of ascending node: 84.8716°
argument of perigee: 272.2655°
revolutions per day: 14.38886278
mean anomaly at epoch: 87.5506°
orbit number at epoch: 52321

The dashed part of the orbit path shows where the satellite is in the earth's shadow,  

DLR